PDT,Max TemperatureF,Mean TemperatureF,Min TemperatureF,Max Dew PointF,MeanDew PointF,Min DewpointF,Max Humidity, Mean Humidity, Min Humidity, Max Sea Level PressureIn, Mean Sea Level PressureIn, Min Sea Level PressureIn, Max VisibilityMiles, Mean VisibilityMiles, Min VisibilityMiles, Max Wind SpeedMPH, Mean Wind SpeedMPH, Max Gust SpeedMPH,PrecipitationIn, CloudCover, Events, WindDirDegrees
2014-4-1,56,48,39,40,36,23,89,59,29,29.98,29.94,29.91,10,10,7,26,16,33,0.09,5,Rain,249
2014-4-2,57,47,37,36,30,24,85,58,30,30.07,29.97,29.91,10,10,10,32,17,37,0.00,1,,269
2014-4-3,66,48,30,40,29,19,85,52,18,30.14,30.08,30.03,10,10,10,21,7,26,0.00,0,,246
2014-4-4,62,53,43,37,29,19,71,46,20,30.02,29.96,29.90,10,10,10,24,13,33,0.00,1,,251
2014-4-5,66,54,42,39,35,30,83,56,28,30.11,30.00,29.92,10,10,10,33,17,38,0.00,0,,284
2014-4-6,74,55,35,37,31,23,79,47,15,30.21,30.14,30.07,10,10,10,18,5,21,0.00,0,,312
2014-4-7,83,61,38,39,30,21,70,40,10,30.24,30.16,30.10,10,10,10,15,4,20,0.00,0,,303
2014-4-8,86,64,41,35,28,13,65,36,7,30.20,30.12,30.05,10,10,10,20,5,25,0.00,0,,255
2014-4-9,86,66,45,31,16,3,53,29,4,30.09,30.03,29.96,10,10,10,22,8,26,0.00,0,,240
2014-4-10,86,64,42,33,16,-2,45,25,4,30.00,29.96,29.90,10,10,10,21,11,28,0.00,0,,250
2014-4-11,82,67,52,27,12,0,28,16,4,29.92,29.87,29.81,10,10,10,28,14,32,0.00,0,,246
2014-4-12,73,63,53,42,36,18,64,42,19,29.85,29.79,29.76,10,10,10,32,21,40,0.00,0,,240
2014-4-13,83,68,52,41,37,30,64,40,16,29.99,29.88,29.83,10,10,10,31,18,39,0.00,0,,258
2014-4-14,79,59,39,38,21,6,73,40,7,30.17,30.09,30.01,10,10,10,23,6,28,0.00,0,,24
2014-4-15,83,65,46,36,30,22,49,32,14,30.05,29.92,29.81,10,10,10,28,12,32,0.00,0,,267
2014-4-16,87,74,60,34,26,15,36,22,8,29.82,29.79,29.72,10,10,10,30,16,37,0.00,0,,268
2014-4-17,82,64,46,50,39,29,77,49,21,29.86,29.82,29.79,10,10,10,30,11,36,0.00,0,,255
2014-4-18,78,66,53,49,43,33,77,49,20,29.91,29.84,29.79,10,10,10,26,15,30,0.00,0,,244
2014-4-19,82,65,48,45,41,34,54,39,23,30.01,29.95,29.90,10,10,10,29,12,33,0.00,0,,261
2014-4-20,86,71,55,46,33,21,48,32,15,30.07,30.02,29.96,10,10,8,23,13,136,0.00,0,,259
2014-4-21,85,65,44,43,34,24,60,36,11,30.06,29.99,29.91,10,10,10,24,10,31,0.00,0,,237
2014-4-22,67,59,51,40,30,19,55,37,18,29.97,29.91,29.87,10,10,8,37,22,44,0.00,0,,269
2014-4-23,74,60,45,30,24,13,58,34,10,30.01,29.97,29.92,10,10,10,35,15,43,0.00,0,,279
2014-4-24,80,62,44,37,30,25,53,33,13,30.03,29.95,29.87,10,10,10,30,10,36,0.00,0,,274
2014-4-25,68,55,41,45,40,34,82,59,35,29.87,29.80,29.74,10,10,4,33,21,41,0.14,3,Rain,239
2014-4-26,57,48,38,39,35,32,85,64,43,29.97,29.86,29.72,10,9,2,40,23,48,T,1,Rain,265
2014-4-27,67,56,44,36,33,27,70,47,24,30.04,29.99,29.96,10,10,10,35,23,43,0.00,0,,275
2014-4-28,77,63,49,39,35,27,66,42,17,30.12,30.04,29.98,10,10,10,40,14,46,0.00,0,,288
2014-4-29,81,60,39,36,18,2,73,39,5,30.25,30.17,30.11,10,10,9,32,11,39,0.00,0,,62
2014-4-30,80,61,41,18,8,-1,31,18,5,30.26,30.17,30.08,10,10,10,30,12,39,0.00,0,,66